NAVSTAR 65 (USA 213) - Orbit

View from above orbital plane
View from above orbital plane
View from above satellite
View from above satellite

Ground track
Ground track

The orbit data is extracted from the following two-line orbital elements,

1 36585U 10022A   13140.32285431 -.00000060  00000-0  00000+0 0  1863
2 36585 055.7402 039.6553 0025032 034.5320 153.9164 02.00551578 21816
Epoch (UTC): 20 May 2013 07:44:54
Eccentricity: 0.0025032
inclination: 55.7402°
perigee height: 20116 km
apogee height: 20249 km
right ascension of ascending node: 39.6553°
argument of perigee: 34.5320°
revolutions per day: 2.00551578
mean anomaly at epoch: 153.9164°
orbit number at epoch: 2181

The dashed part of the orbit path shows where the satellite is in the earth's shadow,  

Developed and maintained by Chris Peat, Heavens-Above GmbH. Please read the updated FAQ before sending e-mail. Imprint. DLR